Disclaimer

Please do not use the information listed here in-flight or in-navigation, as they are not provided to us by the airports but are provided by volunteers, so they might be outdated.

Search


Regions


Airport information page

Radio informations:
DE GAULLE TWR - 119.25 MHz
DE GAULLE PREFLI - 126.65 MHz
DE GAULLE GND - 121.6 MHz
DE GAULLE DEP - 124.35 MHz
DE GAULLE ATIS - 127.125 MHz
DE GAULLE APP - 121.15 MHz

Airport informations:
Latitude: 49° 00' 46.00" N
Longitude: 002° 33' 00.00" E
Elevation: 392 feet - 119 meters
Operating hours: 24 hour operations
Operating agency: Civil government, landing fees and diplomatic clearance may be required
Timezone: UTC+1(+2DT) - Last Sunday in March to last Sunday in October
Fuel: JP-4, Wide cut turbine fuel MIL Spec T-5624

Jet A1, without icing nhibitor.

Runway information:
08R/26L - 8858 x 197 feet< - >2700 x 60 meters
08L/26R - 13829 x 148 feet< - >4215 x 45 meters
09R/27L - 13780 x 148 feet< - >4200 x 45 meters
09L/27R - 8858 x 197 feet< - >2700 x 60 meters

Recent METARs:
LFPG 212130Z 17006KT 6000 NSC M02/M04 Q1019 NOSIG
LFPG 212200Z 18007KT 6000 NSC M02/M03 Q1018 NOSIG
LFPG 212230Z 17007KT 6000 NSC M02/M03 Q1018 NOSIG

Airport on the map: